,,Stat5,,Stat1,,Stat2,,Stat3,,Stat4,,Wind1,,Wind1,
time,status,PA1M_AVG,status,PR1M_SUM,status,RH1M_AVG,status,SR1M_AVG,status,TA1M_AVG,status,W1dAve1m,status,W1sAve1m,
2002-07-02, 00:00:01,VALID,920.507,VALID,0,VALID,97.7152,VALID,0.0169808,VALID,19.158,VALID,145,VALID,0.364231,
2002-07-02, 00:01:00,VALID,920.503,VALID,0,VALID,97.7699,VALID,0.0169808,VALID,19.1682,VALID,131,VALID,0.434122,
2002-07-02, 00:02:00,VALID,920.501,VALID,0,VALID,97.8067,VALID,0.0339617,VALID,19.1479,VALID,99,VALID,0.413651,
2002-07-02, 00:03:00,VALID,920.507,VALID,0,VALID,97.794,VALID,0.0169808,VALID,19.1352,VALID,88,VALID,0.684896,
2002-07-02, 00:04:00,VALID,920.508,VALID,0,VALID,97.8462,VALID,0.0849042,VALID,19.129,VALID,87,VALID,0.797309,
2002-07-02, 00:05:00,VALID,920.5,VALID,0,VALID,97.8868,VALID,0.0509425,VALID,19.119,VALID,93,VALID,0.88192,
2002-07-02, 00:06:00,VALID,920.501,VALID,0,VALID,97.9314,VALID,0.0679233,VALID,19.0992,VALID,92,VALID,0.649282,
2002-07-02, 00:07:01,VALID,920.505,VALID,0,VALID,97.9606,VALID,0.0339617,VALID,19.0964,VALID,109,VALID,0.218945,
2002-07-02, 00:08:01,VALID,920.518,VALID,0,VALID,97.9708,VALID,0,VALID,19.0969,VALID,160,VALID,0.390179,
2002-07-02, 00:09:00,VALID,920.514,VALID,0,VALID,98,VALID,0,VALID,19.0833,VALID,177,VALID,0.20558,
2002-07-02, 00:10:01,VALID,920.522,VALID,0,VALID,98.0153,VALID,0.0169808,VALID,19.0833,VALID,167,VALID,0.486979,
2002-07-02, 00:11:01,VALID,920.522,VALID,0,VALID,97.9568,VALID,0,VALID,19.0768,VALID,138,VALID,0.762747,
2002-07-02, 00:12:00,VALID,920.507,VALID,0,VALID,97.8945,VALID,0,VALID,19.0771,VALID,117,VALID,0.751085,
2002-07-02, 00:13:00,VALID,920.509,VALID,0,VALID,97.8207,VALID,0.0339617,VALID,19.0674,VALID,110,VALID,0.671007,
2002-07-02, 00:14:00,VALID,920.487,VALID,0,VALID,97.7635,VALID,0,VALID,19.0512,VALID,116,VALID,0.488487,
2002-07-02, 00:15:00,VALID,920.493,VALID,0,VALID,97.7292,VALID,0.0169808,VALID,19.041,VALID,131,VALID,0.46254,
2002-07-02, 00:16:00,VALID,920.473,VALID,0,VALID,97.7533,VALID,0.0339617,VALID,19.0547,VALID,160,VALID,0.600586,
2002-07-02, 00:17:00,VALID,920.473,VALID,0,VALID,97.7393,VALID,0,VALID,19.0616,VALID,156,VALID,0.78746,
2002-07-02, 00:18:01,VALID,920.459,VALID,0,VALID,97.7419,VALID,0,VALID,19.0547,VALID,143,VALID,0.630809,
2002-07-02, 00:19:00,VALID,920.438,VALID,0,VALID,97.719,VALID,0,VALID,19.0683,VALID,115,VALID,0.966077,
2002-07-02, 00:20:01,VALID,920.413,VALID,0,VALID,97.6554,VALID,0,VALID,19.0651,VALID,103,VALID,0.880664,
2002-07-02, 00:21:00,VALID,920.421,VALID,0,VALID,97.6046,VALID,0,VALID,19.0517,VALID,108,VALID,0.773438,
2002-07-02, 00:22:01,VALID,920.411,VALID,0,VALID,97.574,VALID,0.0339617,VALID,19.0515,VALID,114,VALID,0.73088,
2002-07-02, 00:23:00,VALID,920.394,VALID,0,VALID,97.5664,VALID,0,VALID,19.0485,VALID,88,VALID,0.575863,
2002-07-02, 00:24:00,VALID,920.381,VALID,0,VALID,97.5499,VALID,-0.0169808,VALID,19.0448,VALID,64,VALID,0.736378,
2002-07-02, 00:25:00,VALID,920.351,VALID,0,VALID,97.5715,VALID,0,VALID,19.042,VALID,66,VALID,0.698396,
2002-07-02, 00:26:00,VALID,920.339,VALID,0,VALID,97.5817,VALID,0,VALID,19.0485,VALID,69,VALID,0.570313,
2002-07-02, 00:27:01,VALID,920.331,VALID,0,VALID,97.5537,VALID,0,VALID,19.0321,VALID,90,VALID,0.811266,
2002-07-02, 00:28:00,VALID,920.326,VALID,0,VALID,97.616,VALID,0,VALID,19.0291,VALID,93,VALID,0.97759,
2002-07-02, 00:29:00,VALID,920.301,VALID,0,VALID,97.6058,VALID,0,VALID,19.0293,VALID,90,VALID,1.1028,
2002-07-02, 00:30:00,VALID,920.282,VALID,0,VALID,97.5702,VALID,0,VALID,19.0226,VALID,99,VALID,1.16364,
2002-07-02, 00:31:00,VALID,920.271,VALID,0,VALID,97.5588,VALID,0,VALID,19.0323,VALID,110,VALID,0.883213,
2002-07-02, 00:32:00,VALID,920.245,VALID,0,VALID,97.5308,VALID,0.0169808,VALID,19.0353,VALID,105,VALID,0.852232,
2002-07-02, 00:33:00,VALID,920.239,VALID,0,VALID,97.4914,VALID,0.0169808,VALID,19.0351,VALID,107,VALID,0.755804,
2002-07-02, 00:34:00,VALID,920.19,VALID,0,VALID,97.4354,VALID,0,VALID,19.0482,VALID,110,VALID,0.823808,
2002-07-02, 00:35:01,VALID,920.165,VALID,0,VALID,97.3248,VALID,0,VALID,19.0544,VALID,120,VALID,1.13613,
2002-07-02, 00:36:00,VALID,920.148,VALID,0,VALID,97.2599,VALID,0.0169808,VALID,19.0939,VALID,122,VALID,1.20333,
2002-07-02, 00:37:01,VALID,920.119,VALID,0,VALID,97.148,VALID,0,VALID,19.1064,VALID,116,VALID,1.24479,
2002-07-02, 00:38:00,VALID,920.085,VALID,0,VALID,97.0527,VALID,0.0169808,VALID,19.116,VALID,110,VALID,1.19853,
2002-07-02, 00:39:00,VALID,920.06,VALID,0,VALID,97.0082,VALID,0,VALID,19.1163,VALID,105,VALID,1.23958,
2002-07-02, 00:40:01,VALID,920.052,VALID,0,VALID,96.9878,VALID,0,VALID,19.1324,VALID,109,VALID,1.21382,
2002-07-02, 00:41:01,VALID,920.051,VALID,0,VALID,97.0374,VALID,0,VALID,19.1322,VALID,121,VALID,1.46474,
2002-07-02, 00:42:01,VALID,920.04,VALID,0,VALID,97.1252,VALID,0.0169808,VALID,19.1384,VALID,115,VALID,1.48397,
2002-07-02, 00:43:01,VALID,920.028,VALID,0,VALID,97.1582,VALID,0.0169808,VALID,19.1551,VALID,106,VALID,1.19716,
2002-07-02, 00:44:00,VALID,920.032,VALID,0,VALID,97.1862,VALID,-0.0169808,VALID,19.1384,VALID,105,VALID,1.02115,
2002-07-02, 00:45:00,VALID,920.041,VALID,0,VALID,97.2536,VALID,0,VALID,19.1389,VALID,106,VALID,1.25361,
2002-07-02, 00:46:00,VALID,920.02,VALID,0,VALID,97.3197,VALID,0.0169808,VALID,19.1188,VALID,110,VALID,1.30703,
2002-07-02, 00:47:00,VALID,920.021,VALID,0,VALID,97.3884,VALID,0,VALID,19.1029,VALID,113,VALID,1.33474,
2002-07-02, 00:48:00,VALID,919.998,VALID,0,VALID,97.4087,VALID,0.0339617,VALID,19.1103,VALID,108,VALID,1.3384,
2002-07-02, 00:49:01,VALID,919.979,VALID,0,VALID,97.4647,VALID,0.0169808,VALID,19.0902,VALID,96,VALID,1.04235,
2002-07-02, 00:50:01,VALID,919.963,VALID,0,VALID,97.513,VALID,0,VALID,19.0872,VALID,89,VALID,0.984375,
2002-07-02, 00:51:01,VALID,919.951,VALID,0,VALID,97.6198,VALID,0.0169808,VALID,19.081,VALID,98,VALID,0.889106,
2002-07-02, 00:52:00,VALID,919.932,VALID,0,VALID,97.7076,VALID,0,VALID,19.0745,VALID,105,VALID,0.816512,
2002-07-02, 00:53:01,VALID,919.933,VALID,0,VALID,97.78,VALID,0.0169808,VALID,19.0619,VALID,105,VALID,0.770089,
2002-07-02, 00:54:00,VALID,919.911,VALID,0,VALID,97.8601,VALID,0,VALID,19.0616,VALID,100,VALID,0.898438,
2002-07-02, 00:55:01,VALID,919.888,VALID,0,VALID,97.8894,VALID,0,VALID,19.0586,VALID,97,VALID,0.738582,
2002-07-02, 00:56:01,VALID,919.883,VALID,0,VALID,97.9288,VALID,-0.0169808,VALID,19.0388,VALID,85,VALID,0.846354,
2002-07-02, 00:57:00,VALID,919.862,VALID,0,VALID,97.9339,VALID,0,VALID,19.0293,VALID,89,VALID,0.798564,
2002-07-02, 00:58:00,VALID,919.837,VALID,0,VALID,98.0369,VALID,0,VALID,19.0226,VALID,107,VALID,0.802632,
2002-07-02, 00:59:01,VALID,919.832,VALID,0,VALID,98.0916,VALID,0,VALID,19.0261,VALID,112,VALID,0.73758,
2002-07-02, 01:00:01,VALID,919.819,VALID,0,VALID,98.1056,VALID,-0.0169808,VALID,19.0261,VALID,115,VALID,0.672656,
2002-07-02, 01:01:00,VALID,919.8,VALID,0,VALID,98.1106,VALID,0.0169808,VALID,19.0328,VALID,113,VALID,1.10437,
2002-07-02, 01:02:00,VALID,919.791,VALID,0,VALID,98.1424,VALID,-0.0169808,VALID,19.0296,VALID,120,VALID,1.05749,
2002-07-02, 01:03:00,VALID,919.785,VALID,0,VALID,98.1374,VALID,0,VALID,19.0256,VALID,128,VALID,0.950586,
2002-07-02, 01:04:01,VALID,919.793,VALID,0,VALID,98.1348,VALID,0.0169808,VALID,19.0293,VALID,136,VALID,0.787418,
2002-07-02, 01:05:00,VALID,919.767,VALID,0,VALID,98.1119,VALID,0,VALID,19.0296,VALID,116,VALID,0.925681,
2002-07-02, 01:06:01,VALID,919.768,VALID,0,VALID,98.0496,VALID,0.0169808,VALID,19.0261,VALID,118,VALID,1.06574,
2002-07-02, 01:07:00,VALID,919.767,VALID,0,VALID,98.0127,VALID,0,VALID,19.0035,VALID,120,VALID,1.15604,
2002-07-02, 01:08:00,VALID,919.777,VALID,0,VALID,97.939,VALID,0,VALID,19.0107,VALID,123,VALID,1.09966,
2002-07-02, 01:09:01,VALID,919.769,VALID,0,VALID,97.9008,VALID,0.0169808,VALID,19.0169,VALID,124,VALID,1.18685,
2002-07-02, 01:10:01,VALID,919.774,VALID,0,VALID,97.8284,VALID,-0.0169808,VALID,19.0099,VALID,115,VALID,1.11624,
2002-07-02, 01:11:00,VALID,919.778,VALID,0,VALID,97.7482,VALID,0,VALID,19.0231,VALID,105,VALID,0.811266,
2002-07-02, 01:12:01,VALID,919.785,VALID,0,VALID,97.7279,VALID,0,VALID,19.0194,VALID,100,VALID,0.696791,
2002-07-02, 01:13:01,VALID,919.8,VALID,0,VALID,97.6427,VALID,0,VALID,19.0199,VALID,107,VALID,0.723958,
2002-07-02, 01:14:01,VALID,919.823,VALID,0,VALID,97.5397,VALID,0.0169808,VALID,19.0231,VALID,101,VALID,0.839227,
2002-07-02, 01:15:00,VALID,919.815,VALID,0,VALID,97.485,VALID,0,VALID,19.0199,VALID,98,VALID,0.734175,
2002-07-02, 01:16:00,VALID,919.796,VALID,0,VALID,97.41,VALID,0,VALID,19.0196,VALID,96,VALID,0.653125,
2002-07-02, 01:17:01,VALID,919.789,VALID,0,VALID,97.2752,VALID,0,VALID,19.0095,VALID,102,VALID,0.607936,
2002-07-02, 01:18:01,VALID,919.778,VALID,0,VALID,97.1379,VALID,0,VALID,19.0231,VALID,102,VALID,0.666174,
2002-07-02, 01:19:01,VALID,919.755,VALID,0,VALID,96.9471,VALID,-0.0169808,VALID,19.0233,VALID,119,VALID,0.76262,
2002-07-02, 01:20:00,VALID,919.747,VALID,0,VALID,96.8149,VALID,0,VALID,19.0067,VALID,117,VALID,0.760346,
2002-07-02, 01:21:01,VALID,919.729,VALID,0,VALID,96.6013,VALID,-0.0169808,VALID,19.0201,VALID,114,VALID,0.945946,
2002-07-02, 01:22:01,VALID,919.719,VALID,0,VALID,96.4003,VALID,-0.0169808,VALID,19.0266,VALID,111,VALID,0.835156,
2002-07-02, 01:23:01,VALID,919.706,VALID,0,VALID,96.291,VALID,0,VALID,19.0259,VALID,105,VALID,0.703125,
2002-07-02, 01:24:01,VALID,919.693,VALID,0,VALID,96.235,VALID,0,VALID,19.0425,VALID,101,VALID,0.702097,
2002-07-02, 01:25:01,VALID,919.71,VALID,0,VALID,96.2655,VALID,0.0169808,VALID,19.0457,VALID,103,VALID,0.5331,
2002-07-02, 01:26:01,VALID,919.706,VALID,0,VALID,96.305,VALID,-0.0169808,VALID,19.0259,VALID,114,VALID,0.685238,
2002-07-02, 01:27:01,VALID,919.698,VALID,0,VALID,96.3889,VALID,0,VALID,19.033,VALID,112,VALID,0.875,
2002-07-02, 01:28:01,VALID,919.686,VALID,0,VALID,96.5555,VALID,0,VALID,19.0363,VALID,100,VALID,1.10777,
2002-07-02, 01:29:01,VALID,919.661,VALID,0,VALID,96.6102,VALID,0,VALID,19.0196,VALID,101,VALID,1.08638,
2002-07-02, 01:30:01,VALID,919.645,VALID,0,VALID,96.6814,VALID,0,VALID,19.0067,VALID,97,VALID,0.788839,
2002-07-02, 01:31:01,VALID,919.655,VALID,0,VALID,96.7602,VALID,0,VALID,18.9876,VALID,110,VALID,0.797697,
2002-07-02, 01:32:01,VALID,919.644,VALID,0,VALID,96.7856,VALID,0,VALID,18.9776,VALID,129,VALID,1.10371,
2002-07-02, 01:33:01,VALID,919.635,VALID,0,VALID,96.8937,VALID,0.0169808,VALID,18.965,VALID,131,VALID,1.30829,
2002-07-02, 01:34:01,VALID,919.621,VALID,0,VALID,96.9853,VALID,0,VALID,18.9553,VALID,110,VALID,1.36298,
2002-07-02, 01:35:01,VALID,919.586,VALID,0,VALID,97.1506,VALID,0,VALID,18.9587,VALID,102,VALID,1.43222,
2002-07-02, 01:36:01,VALID,919.575,VALID,0,VALID,97.354,VALID,0,VALID,18.955,VALID,111,VALID,1.55829,
2002-07-02, 01:37:01,VALID,919.553,VALID,0,VALID,97.5677,VALID,0.0169808,VALID,18.9486,VALID,120,VALID,1.21978,
2002-07-02, 01:38:01,VALID,919.566,VALID,0,VALID,97.7279,VALID,0.0169808,VALID,18.9456,VALID,121,VALID,1.24119,
2002-07-02, 01:39:01,VALID,919.572,VALID,0,VALID,97.8665,VALID,0,VALID,18.9329,VALID,95,VALID,1.0014,
2002-07-02, 01:40:01,VALID,919.575,VALID,0,VALID,97.9593,VALID,0.0169808,VALID,18.9036,VALID,98,VALID,0.876028,
2002-07-02, 01:41:00,VALID,919.556,VALID,0,VALID,98.0229,VALID,0,VALID,18.877,VALID,93,VALID,0.980945,
2002-07-02, 01:42:00,VALID,919.543,VALID,0,VALID,98.0903,VALID,0.0169808,VALID,18.8713,VALID,88,VALID,0.985176,
2002-07-02, 01:43:00,VALID,919.524,VALID,0,VALID,98.1157,VALID,0.0169808,VALID,18.845,VALID,103,VALID,0.914063,
2002-07-02, 01:44:00,VALID,919.519,VALID,0,VALID,98.1501,VALID,0.0169808,VALID,18.8258,VALID,104,VALID,0.723558,
2002-07-02, 01:45:00,VALID,919.516,VALID,0,VALID,98.1666,VALID,0,VALID,18.8058,VALID,122,VALID,1.09416,
2002-07-02, 01:46:00,VALID,919.098,VALID,0,VALID,98.1691,VALID,0.0339617,VALID,18.8122,VALID,137,VALID,1.25021,
2002-07-02, 01:47:00,VALID,919.507,VALID,0,VALID,98.1132,VALID,0.0509425,VALID,18.8129,VALID,117,VALID,1.16447,
2002-07-02, 01:48:00,VALID,919.487,VALID,0,VALID,98.0433,VALID,0.0339617,VALID,18.8191,VALID,75,VALID,1.15582,
2002-07-02, 01:49:00,VALID,919.472,VALID,0,VALID,97.9759,VALID,0,VALID,18.8095,VALID,92,VALID,1.04772,
2002-07-02, 01:50:00,VALID,919.47,VALID,0,VALID,97.8334,VALID,0.0169808,VALID,18.8127,VALID,104,VALID,1.07388,
2002-07-02, 01:51:00,VALID,919.436,VALID,0,VALID,97.6338,VALID,0.0169808,VALID,18.8058,VALID,121,VALID,1.22891,
2002-07-02, 01:52:00,VALID,919.444,VALID,0,VALID,97.4698,VALID,0.0509425,VALID,18.8058,VALID,127,VALID,0.939904,
2002-07-02, 01:53:00,VALID,919.439,VALID,0,VALID,97.2968,VALID,0.0339617,VALID,18.8258,VALID,124,VALID,1.09375,
2002-07-02, 01:54:00,VALID,919.432,VALID,0,VALID,97.0629,VALID,0.0169808,VALID,18.8221,VALID,117,VALID,1.00148,
2002-07-02, 01:55:00,VALID,919.431,VALID,0,VALID,96.7577,VALID,0.0339617,VALID,18.8219,VALID,93,VALID,1.29893,
2002-07-02, 01:56:00,VALID,919.433,VALID,0,VALID,96.5428,VALID,0,VALID,18.8323,VALID,82,VALID,1.30369,
2002-07-02, 01:57:00,VALID,919.419,VALID,0,VALID,96.4169,VALID,-0.0679233,VALID,18.8596,VALID,77,VALID,1.40156,
2002-07-02, 01:58:00,VALID,919.402,VALID,0,VALID,96.249,VALID,-0.101885,VALID,18.866,VALID,91,VALID,1.1867,
2002-07-02, 01:59:00,VALID,919.411,VALID,0,VALID,96.1587,VALID,-0.0849042,VALID,18.8524,VALID,96,VALID,0.853365,
2002-07-02, 02:00:00,VALID,919.407,VALID,0,VALID,96.1409,VALID,-0.101885,VALID,18.8492,VALID,114,VALID,0.87207,
2002-07-02, 02:01:00,VALID,919.411,VALID,0,VALID,96.1943,VALID,-0.0679233,VALID,18.8626,VALID,114,VALID,0.730058,
2002-07-02, 02:02:00,VALID,919.42,VALID,0,VALID,96.277,VALID,-0.0679233,VALID,18.8817,VALID,123,VALID,0.651442,
2002-07-02, 02:03:00,VALID,919.413,VALID,0,VALID,96.4588,VALID,-0.101885,VALID,18.8949,VALID,134,VALID,0.595656,
2002-07-02, 02:04:00,VALID,919.42,VALID,0,VALID,96.6483,VALID,-0.0849042,VALID,18.8916,VALID,111,VALID,1.04646,
2002-07-02, 02:05:00,VALID,919.408,VALID,0,VALID,96.7246,VALID,-0.0849042,VALID,18.8886,VALID,95,VALID,0.806166,
2002-07-02, 02:06:00,VALID,919.401,VALID,0,VALID,96.7589,VALID,-0.0169808,VALID,18.866,VALID,77,VALID,0.892361,
2002-07-02, 02:07:00,VALID,919.404,VALID,0,VALID,96.8734,VALID,-0.0849042,VALID,18.8397,VALID,62,VALID,0.840199,
2002-07-02, 02:08:00,VALID,919.397,VALID,0,VALID,96.9077,VALID,-0.0509425,VALID,18.8471,VALID,42,VALID,0.877467,
2002-07-02, 02:09:00,VALID,919.393,VALID,0,VALID,96.8836,VALID,-0.101885,VALID,18.8305,VALID,42,VALID,0.577069,
2002-07-02, 02:10:00,VALID,919.389,VALID,0,VALID,96.7577,VALID,-0.101885,VALID,18.8014,VALID,76,VALID,0.286058,
2002-07-02, 02:11:00,VALID,919.386,VALID,0,VALID,96.7805,VALID,-0.101885,VALID,18.7957,VALID,66,VALID,0.465461,
2002-07-02, 02:12:00,VALID,919.38,VALID,0,VALID,96.8225,VALID,0,VALID,18.7707,VALID,63,VALID,0.785857,
2002-07-02, 02:13:00,VALID,919.366,VALID,0,VALID,96.8352,VALID,0.0169808,VALID,18.7617,VALID,70,VALID,0.778348,
2002-07-02, 02:14:00,VALID,919.348,VALID,0,VALID,96.8365,VALID,0.0169808,VALID,18.7518,VALID,69,VALID,0.415296,
2002-07-02, 02:15:00,VALID,919.338,VALID,0,VALID,96.8314,VALID,0.0169808,VALID,18.7486,VALID,81,VALID,0.403505,
2002-07-02, 02:16:00,VALID,919.334,VALID,0,VALID,96.7182,VALID,-0.0169808,VALID,18.719,VALID,88,VALID,1.16847,
2002-07-02, 02:17:00,VALID,919.319,VALID,0,VALID,96.6305,VALID,0.0169808,VALID,18.7156,VALID,72,VALID,1.00633,
2002-07-02, 02:18:00,VALID,919.292,VALID,0,VALID,96.5987,VALID,0,VALID,18.7096,VALID,50,VALID,0.729941,
2002-07-02, 02:19:00,VALID,919.302,VALID,0,VALID,96.6114,VALID,0,VALID,18.7126,VALID,18,VALID,0.42832,
2002-07-02, 02:20:00,VALID,919.3,VALID,0,VALID,96.6165,VALID,0,VALID,18.7098,VALID,318,VALID,0.621916,
2002-07-02, 02:21:00,VALID,919.296,VALID,0,VALID,96.558,VALID,0,VALID,18.7068,VALID,315,VALID,0.270559,
2002-07-02, 02:22:00,VALID,919.275,VALID,0,VALID,96.6267,VALID,0,VALID,18.677,VALID,351,VALID,0.594161,
2002-07-02, 02:23:00,VALID,919.253,VALID,0,VALID,96.5669,VALID,0,VALID,18.6713,VALID,19,VALID,0.839227,
2002-07-02, 02:24:00,VALID,919.251,VALID,0,VALID,96.5377,VALID,0,VALID,18.6487,VALID,39,VALID,0.827069,
2002-07-02, 02:25:00,VALID,919.237,VALID,0,VALID,96.5453,VALID,0,VALID,18.6358,VALID,54,VALID,0.986579,
2002-07-02, 02:26:00,VALID,919.211,VALID,0,VALID,96.455,VALID,0.0169808,VALID,18.6228,VALID,51,VALID,1.01719,
2002-07-02, 02:27:00,VALID,919.208,VALID,0,VALID,96.3686,VALID,0,VALID,18.6127,VALID,51,VALID,1.00089,
2002-07-02, 02:28:00,VALID,919.194,VALID,0,VALID,96.2884,VALID,0,VALID,18.6191,VALID,48,VALID,0.939967,
2002-07-02, 02:29:00,VALID,919.194,VALID,0,VALID,96.1486,VALID,0.0169808,VALID,18.6127,VALID,48,VALID,0.978516,
2002-07-02, 02:30:00,VALID,919.175,VALID,0,VALID,96.015,VALID,0,VALID,18.6166,VALID,54,VALID,1.16166,
2002-07-02, 02:31:00,VALID,919.136,VALID,0,VALID,95.879,VALID,0.0169808,VALID,18.6256,VALID,60,VALID,1.09095,
2002-07-02, 02:32:00,VALID,919.12,VALID,0,VALID,95.6692,VALID,0,VALID,18.6228,VALID,66,VALID,0.632353,
2002-07-02, 02:33:00,VALID,919.114,VALID,0,VALID,95.6832,VALID,0,VALID,18.6132,VALID,35,VALID,0.45653,
2002-07-02, 02:34:00,VALID,919.106,VALID,0,VALID,95.8383,VALID,0,VALID,18.6099,VALID,32,VALID,0.340666,
2002-07-02, 02:35:00,VALID,919.087,VALID,0,VALID,95.9108,VALID,0,VALID,18.6,VALID,16,VALID,0.36238,
2002-07-02, 02:36:00,VALID,919.053,VALID,0,VALID,95.2928,VALID,0,VALID,18.5292,VALID,329,VALID,0.894631,
2002-07-02, 02:37:00,VALID,919.039,VALID,0,VALID,95.0753,VALID,0,VALID,18.5098,VALID,19,VALID,0.465255,
2002-07-02, 02:38:00,VALID,919.01,VALID,0,VALID,94.9176,VALID,0,VALID,18.4969,VALID,34,VALID,0.30888,
2002-07-02, 02:39:00,VALID,918.993,VALID,0,VALID,94.9761,VALID,0,VALID,18.5001,VALID,33,VALID,0.408854,
2002-07-02, 02:40:00,VALID,918.98,VALID,0,VALID,94.9088,VALID,0,VALID,18.4934,VALID,33,VALID,0.270117,
2002-07-02, 02:41:00,VALID,918.968,VALID,0,VALID,94.8286,VALID,0,VALID,18.4844,VALID,33,VALID,0.0514824,
2002-07-02, 02:42:00,VALID,918.974,VALID,0,VALID,94.9927,VALID,0,VALID,18.4713,VALID,13,VALID,0.210732,
2002-07-02, 02:43:00,VALID,918.964,VALID,0,VALID,95.0028,VALID,0.0339617,VALID,18.487,VALID,14,VALID,0.00596217,
2002-07-02, 02:44:00,VALID,918.948,VALID,0,VALID,94.9749,VALID,0,VALID,18.4745,VALID,83,VALID,0.448808,
2002-07-02, 02:45:00,VALID,918.941,VALID,0,VALID,94.7422,VALID,0,VALID,18.4581,VALID,88,VALID,0.451823,
2002-07-02, 02:46:00,VALID,918.948,VALID,0,VALID,93.5965,VALID,0.0169808,VALID,18.4196,VALID,88,VALID,0.704603,
2002-07-02, 02:47:00,VALID,918.938,VALID,0,VALID,93.5303,VALID,0,VALID,18.4487,VALID,80,VALID,0.768304,
2002-07-02, 02:48:00,VALID,918.929,VALID,0,VALID,94.142,VALID,0.0169808,VALID,18.5103,VALID,44,VALID,0.75293,
2002-07-02, 02:49:00,VALID,918.943,VALID,0,VALID,94.4522,VALID,0,VALID,18.5197,VALID,29,VALID,0.472556,
2002-07-02, 02:50:00,VALID,918.939,VALID,0,VALID,94.6735,VALID,0.0339617,VALID,18.4902,VALID,117,VALID,0.532853,
2002-07-02, 02:51:00,VALID,918.944,VALID,0,VALID,94.4535,VALID,0,VALID,18.4455,VALID,152,VALID,0.604307,
2002-07-02, 02:52:00,VALID,918.961,VALID,0,VALID,94.6074,VALID,0.0169808,VALID,18.4069,VALID,275,VALID,0.504112,
2002-07-02, 02:53:00,VALID,918.969,VALID,0,VALID,94.8401,VALID,0,VALID,18.3972,VALID,8,VALID,0.289663,
2002-07-02, 02:54:00,VALID,918.979,VALID,0,VALID,95.1122,VALID,0,VALID,18.3908,VALID,118,VALID,0.611719,
2002-07-02, 02:55:00,VALID,918.991,VALID,0,VALID,95.191,VALID,0,VALID,18.397,VALID,110,VALID,0.68129,
2002-07-02, 02:56:00,VALID,918.995,VALID,0,VALID,95.2584,VALID,0,VALID,18.4007,VALID,125,VALID,0.579928,
2002-07-02, 02:57:00,VALID,919.003,VALID,0,VALID,95.3373,VALID,0.101885,VALID,18.4025,VALID,200,VALID,0.211328,
2002-07-02, 02:58:00,VALID,919.009,VALID,0,VALID,95.411,VALID,0.101885,VALID,18.4155,VALID,249,VALID,0.207854,
2002-07-02, 02:59:00,VALID,919.014,VALID,0,VALID,95.5089,VALID,0.0849042,VALID,18.415,VALID,249,VALID,0.0889423,
2002-07-02, 03:00:00,VALID,919.031,VALID,0,VALID,95.6692,VALID,0.101885,VALID,18.4348,VALID,26,VALID,0.603087,
2002-07-02, 03:01:00,VALID,919.009,VALID,0,VALID,95.7951,VALID,0.101885,VALID,18.4418,VALID,61,VALID,0.966077,
2002-07-02, 03:02:00,VALID,919.013,VALID,0,VALID,96.0774,VALID,0.0849042,VALID,18.4406,VALID,71,VALID,0.834459,
2002-07-02, 03:03:00,VALID,919.011,VALID,0,VALID,96.1308,VALID,0.118866,VALID,18.4574,VALID,65,VALID,0.497179,
2002-07-02, 03:04:00,VALID,919.008,VALID,0,VALID,96.1549,VALID,0.101885,VALID,18.4247,VALID,48,VALID,0.306108,
2002-07-02, 03:05:00,VALID,919,VALID,0,VALID,96.3609,VALID,0.101885,VALID,18.4219,VALID,50,VALID,0.301398,
2002-07-02, 03:06:00,VALID,919.001,VALID,0,VALID,96.4919,VALID,0.101885,VALID,18.4088,VALID,51,VALID,0.337627,
2002-07-02, 03:07:00,VALID,918.979,VALID,0,VALID,96.5707,VALID,0.101885,VALID,18.4125,VALID,51,VALID,0.383413,
2002-07-02, 03:08:00,VALID,918.951,VALID,0,VALID,96.5593,VALID,0.101885,VALID,18.3829,VALID,51,VALID,0.47389,
2002-07-02, 03:09:00,VALID,918.954,VALID,0,VALID,96.4843,VALID,0.118866,VALID,18.3412,VALID,67,VALID,0.66867,
2002-07-02, 03:10:00,VALID,918.951,VALID,0,VALID,96.2007,VALID,0.118866,VALID,18.2865,VALID,98,VALID,1.10938,
2002-07-02, 03:11:00,VALID,918.933,VALID,0,VALID,96.4944,VALID,0.101885,VALID,18.2637,VALID,120,VALID,0.889186,
2002-07-02, 03:12:00,VALID,918.927,VALID,0,VALID,96.5517,VALID,0,VALID,18.2713,VALID,134,VALID,0.57348,
2002-07-02, 03:13:00,VALID,918.941,VALID,0,VALID,96.3139,VALID,0,VALID,18.2618,VALID,130,VALID,0.591146,
2002-07-02, 03:14:00,VALID,918.944,VALID,0,VALID,96.2757,VALID,0,VALID,18.2558,VALID,114,VALID,0.594172,
2002-07-02, 03:15:00,VALID,918.938,VALID,0,VALID,96.0977,VALID,-0.0169808,VALID,18.2522,VALID,105,VALID,0.833826,
2002-07-02, 03:16:00,VALID,918.913,VALID,0,VALID,96.1664,VALID,-0.0169808,VALID,18.2526,VALID,82,VALID,0.934961,
2002-07-02, 03:17:00,VALID,918.904,VALID,0,VALID,96.319,VALID,0,VALID,18.2455,VALID,93,VALID,1.19716,
2002-07-02, 03:18:00,VALID,918.877,VALID,0,VALID,96.4932,VALID,0,VALID,18.2459,VALID,112,VALID,0.756785,
2002-07-02, 03:19:00,VALID,918.863,VALID,0,VALID,96.6,VALID,-0.0169808,VALID,18.2293,VALID,109,VALID,0.213199,
2002-07-02, 03:20:00,VALID,918.858,VALID,0,VALID,96.6865,VALID,-0.0169808,VALID,18.233,VALID,90,VALID,0.66838,
2002-07-02, 03:21:00,VALID,918.807,VALID,0,VALID,96.8136,VALID,-0.0339617,VALID,18.2302,VALID,86,VALID,0.675676,
2002-07-02, 03:22:00,VALID,918.808,VALID,0,VALID,96.9751,VALID,0,VALID,18.2201,VALID,84,VALID,0.536458,
2002-07-02, 03:23:00,VALID,918.785,VALID,0,VALID,97.04,VALID,-0.0169808,VALID,18.2035,VALID,83,VALID,0.315179,
2002-07-02, 03:24:00,VALID,918.774,VALID,0,VALID,97.1379,VALID,0,VALID,18.2039,VALID,65,VALID,0.30692,
2002-07-02, 03:25:00,VALID,918.752,VALID,0,VALID,97.1697,VALID,-0.0169808,VALID,18.191,VALID,49,VALID,0.468956,
2002-07-02, 03:26:00,VALID,918.724,VALID,0,VALID,97.1722,VALID,-0.0169808,VALID,18.1686,VALID,49,VALID,0.518555,
2002-07-02, 03:27:00,VALID,918.735,VALID,0,VALID,97.2727,VALID,-0.118866,VALID,18.1373,VALID,49,VALID,0.272436,
2002-07-02, 03:28:00,VALID,918.745,VALID,0,VALID,97.335,VALID,-0.118866,VALID,18.135,VALID,49,VALID,0.0088141,
2002-07-02, 03:29:00,VALID,918.743,VALID,0,VALID,97.4087,VALID,-0.118866,VALID,18.1022,VALID,49,VALID,0,
2002-07-02, 03:30:00,VALID,918.733,VALID,0,VALID,97.466,VALID,-0.118866,VALID,18.0925,VALID,49,VALID,0,
2002-07-02, 03:31:00,VALID,918.753,VALID,0,VALID,97.5257,VALID,-0.118866,VALID,18.0694,VALID,49,VALID,0.0530428,
2002-07-02, 03:32:00,VALID,918.755,VALID,0,VALID,97.6185,VALID,-0.101885,VALID,18.0632,VALID,61,VALID,0.551883,
2002-07-02, 03:33:00,VALID,918.745,VALID,0,VALID,97.7393,VALID,-0.101885,VALID,18.0561,VALID,72,VALID,0.510417,
2002-07-02, 03:34:00,VALID,918.748,VALID,0,VALID,97.7838,VALID,-0.118866,VALID,18.0699,VALID,71,VALID,0.149054,
2002-07-02, 03:35:00,VALID,918.767,VALID,0,VALID,97.7978,VALID,-0.101885,VALID,18.0727,VALID,71,VALID,0.0121951,
2002-07-02, 03:36:00,VALID,918.749,VALID,0,VALID,97.7838,VALID,-0.118866,VALID,18.0632,VALID,71,VALID,0.0494792,
2002-07-02, 03:37:00,VALID,918.731,VALID,0,VALID,97.7775,VALID,-0.101885,VALID,18.06,VALID,71,VALID,0.226563,